STARLINK-30524, 57965

Orbit data source: Space-Track

STARLINK-30524, 57965 is a payload satellite owned by SpaceX/Seattle (US) in LEO that was launched on Sat, 30 Sep 2023 UTC via an FALCON 9 launch vehicle from the Air Force Eastern Test Range (AFETR). Payload-class satellites include a variety of spacecraft equipped with specific instruments for various scientific and technological missions. These include communications satellites like Starlink; space stations such as the ISS; scientific satellites like the Hubble; Earth observation satellites from companies like Planet Labs, Umbra, and HawkEye 360; GPS; miniature CubeSats for education and research; and military/defense satellites.

Loading next visibility...
Identifier
57965, 2023-151B
Orbit
LEO
Country
Flag of USUS
Related business
Manufacturer
SpaceX/Seattle
Mission
Operational Commercial Communications
Bus & Motor
STARLINK V2M, Unknown motor
Mass
730 kg wet, ~700 kg dry
Launch date (UTC)
2023-09-30 (3 years ago)
Launch vehicle
FALCON 9
Launch site
Air Force Eastern Test Range (AFETR)
Object type
Payload
Rocket body
Debris
Shape & HBR
Box + 2 Pan, 17.7 m
Radar Cross Section
33.884 m², Large (>1 m²)

Expand to show TLE details & history
Last TLE update: 11 hours ago

TLE from 11 hours ago
0 STARLINK-30524
1 57965U 23151B   26130.02070757 -.00000725  00000-0 -16823-4 0  9994
2 57965  43.0008 349.8653 0001662 253.8263 106.2406 15.27572593145141
Epoch: 2026-05-10T00:29Z
TLE epoch observation values (Epoch: 2026-05-10T00:29:49.134Z)
Latitude
0.00002°
Longitude
114.58081°
Altitude
483.166 km
Speed
7.625 km/s
True Right ascension
23h 19m 27s
True Declination
0° 00' 00"
Sunlit
Object was in daylight at epoch
Visualization orbit readout
Latitude
Unknown
Longitude
Unknown
Altitude
Unknown
Speed
Unknown
Apparent Right ascension
Unknown
Apparent Declination
Unknown
Sunlit
N/A
Visualization observer readout
Local Sidereal Time
19:51:18
Azimuth
Unknown
Elevation
Unknown
Doppler factor
Unknown
Orbital elements
Apogee altitude
486.157 km
Perigee altitude
483.876 km
Semi-major axis
6,863.153 km
Eccentricity
0.00017
Inclination
43.0008°
RAAN
349.8653°
Arg. of periapsis
253.8263°
True anomaly
106.25888°
Mean anomaly
106.2406°
Eccentric anomaly
106.24974°
Mean motion
3.81731 °/min
Orbital period
94.31 mins
BSTAR
-0.000016823
Loading maneuver chart data...
Computing Atmospheric mass density...
Loading historical data...
Loading historical data...
Loading historical data...
Loading historical data...
Loading historical data...
Loading historical data...
Loading historical data...

Documentation

Showing up to 5 results
|